Location: Unspecified
(0.0000°N, 0.0000°E)
Time: 19:16:30
(UTC+00:00)

SR - All Passes

Search period start: 28 February 2015 00:00
Search period end: 10 March 2015 00:00
Orbit: 583 x 879 km, 66.7° (Epoch: 26 February)

Date Brightness Start Highest point End Pass type
(mag) Time Alt. Az. Time Alt. Az. Time Alt. Az.
28 Feb - 04:16:34 10° SSE 04:21:08 25° ESE 04:25:41 10° ENE visible
28 Feb - 05:58:31 10° SW 06:03:14 25° WNW 06:07:33 10° NNW daylight
28 Feb - 16:42:47 10° N 16:46:58 49° ENE 16:51:26 10° SE daylight
01 Mar - 05:08:51 10° SSW 05:14:34 60° WNW 05:19:55 10° N visible
01 Mar - 15:55:32 10° NNE 15:58:19 17° ENE 16:01:25 10° ESE daylight
01 Mar - 17:37:00 10° WNW 17:40:18 20° WSW 17:43:37 10° SSW daylight
02 Mar - 04:20:13 10° S 04:25:54 58° ESE 04:31:17 10° NNE visible
02 Mar - 16:47:15 10° NNW 16:51:31 55° WSW 16:56:07 10° S daylight
03 Mar - 03:32:35 10° SSE 03:37:07 24° ESE 03:41:37 10° ENE visible
03 Mar - 05:14:31 10° SW 05:19:12 25° WNW 05:23:30 10° NNW visible
03 Mar - 15:58:43 10° N 16:02:54 48° ENE 16:07:25 10° SE daylight
04 Mar - 04:24:50 10° SSW 04:30:33 60° WNW 04:35:52 10° N visible
04 Mar - 15:11:28 10° NNE 15:14:15 17° ENE 15:17:22 10° ESE daylight
04 Mar - 16:52:53 10° WNW 16:56:14 20° WSW 16:59:36 10° SSW daylight
05 Mar - 03:36:12 10° S 03:41:52 57° ESE 03:47:13 10° NNE visible
05 Mar - 16:03:09 10° NNW 16:07:27 56° WSW 16:12:04 10° S daylight
06 Mar - 02:48:35 10° SSE 02:53:04 24° ESE 02:57:32 10° ENE night (unlit)
06 Mar - 04:30:29 10° SW 04:35:09 25° WNW 04:39:27 10° NNW visible
06 Mar - 15:14:37 10° N 15:18:49 48° ENE 15:23:21 10° SE daylight
07 Mar - 03:40:48 10° SSW 03:46:29 61° WNW 03:51:48 10° N night (unlit)
07 Mar - 14:27:23 10° NNE 14:30:10 17° ENE 14:33:17 10° ESE daylight
07 Mar - 16:08:45 10° WNW 16:12:10 20° WSW 16:15:35 10° SSW daylight
08 Mar - 02:52:10 10° S 02:57:49 56° ESE 03:03:08 10° NNE night (unlit)
08 Mar - 15:19:02 10° NNW 15:23:22 57° WSW 15:28:00 10° S daylight
09 Mar - 02:04:33 10° SSE 02:09:00 24° ESE 02:13:25 10° ENE night (unlit)
09 Mar - 03:46:25 10° SW 03:51:05 25° WNW 03:55:21 10° NNW night (unlit)
09 Mar - 14:30:31 10° N 14:34:43 48° ENE 14:39:16 10° SE daylight
